Torna al catalogo

STARLINK-5526

AttivoComunicazioniVLEO
NORAD 56496·PAYLOAD·🇺🇸 United States

Lanciato May 10, 2023 da Vandenberg Space Force Base

Loading…

Prossimi Passaggi (prossime 24 ore)

TLE

AggiornatoSource: CelesTrak SupGP

Epoca: Sep 14, 2026, 20:44 UTC

1 56496C 23064BA  26257.86437500 -.00051036  00000+0 -42774-2 0  2579
2 56496  70.0020 347.3808 0003469 259.0644  26.4005 14.98351615    17

Traccia STARLINK-5526 in tempo reale con AllMySat

Download on the App Store